TimeCST,TemperatureF,Dew PointF,Humidity,Sea Level PressureIn,VisibilityMPH,Wind Direction,Wind SpeedMPH,Gust SpeedMPH,PrecipitationIn,Events,Conditions,WindDirDegrees,DateUTC
12:13 AM,30.2,18.3,61,29.95,10.0,SSW,12.7,19.6,N/A,,Clear,210,2013-11-25 06:13:00
12:34 AM,30.2,18.5,62,29.94,10.0,SSW,15.0,26.5,N/A,,Clear,210,2013-11-25 06:34:00
12:53 AM,30.2,18.9,63,29.94,10.0,SSW,15.0,23.0,N/A,,Clear,210,2013-11-25 06:53:00
1:13 AM,30.6,19.4,63,29.93,10.0,SSW,12.7,26.5,N/A,,Scattered Clouds,210,2013-11-25 07:13:00
1:34 AM,30.7,19.8,64,29.92,10.0,SSW,18.4,25.3,N/A,,Overcast,210,2013-11-25 07:34:00
1:53 AM,31.1,20.3,64,29.91,10.0,SSW,16.1,23.0,N/A,,Overcast,210,2013-11-25 07:53:00
2:13 AM,31.8,20.8,64,29.91,10.0,SSW,17.3,26.5,N/A,,Overcast,210,2013-11-25 08:13:00
2:34 AM,32.0,21.7,66,29.91,10.0,SW,16.1,23.0,N/A,,Overcast,220,2013-11-25 08:34:00
2:53 AM,32.0,22.3,67,29.91,10.0,SW,15.0,21.9,N/A,,Scattered Clouds,220,2013-11-25 08:53:00
3:13 AM,31.8,22.6,69,29.90,10.0,SW,10.4,17.3,N/A,,Clear,220,2013-11-25 09:13:00
3:34 AM,31.6,23.0,70,29.90,10.0,SW,11.5,-,N/A,,Clear,220,2013-11-25 09:34:00
3:53 AM,31.5,23.2,71,29.90,10.0,SW,9.2,-,N/A,,Clear,220,2013-11-25 09:53:00
4:14 AM,31.8,24.4,74,29.90,10.0,SW,11.5,18.4,N/A,,Clear,220,2013-11-25 10:14:00
4:33 AM,32.0,25.5,77,29.90,10.0,SW,10.4,-,N/A,,Clear,230,2013-11-25 10:33:00
4:53 AM,32.2,25.9,78,29.90,10.0,SW,9.2,17.3,N/A,,Clear,230,2013-11-25 10:53:00
5:14 AM,32.0,26.2,79,29.90,10.0,WSW,11.5,16.1,N/A,,Clear,240,2013-11-25 11:14:00
5:33 AM,32.0,26.4,80,29.91,10.0,WSW,11.5,-,N/A,,Clear,250,2013-11-25 11:33:00
5:53 AM,31.6,26.2,80,29.92,10.0,WSW,12.7,-,N/A,,Clear,250,2013-11-25 11:53:00
6:14 AM,30.9,25.9,82,29.92,10.0,WSW,8.1,-,N/A,,Clear,250,2013-11-25 12:14:00
6:34 AM,30.0,25.5,83,29.92,10.0,WSW,10.4,-,N/A,,Clear,250,2013-11-25 12:34:00
6:53 AM,29.5,25.5,85,29.93,10.0,West,10.4,-,N/A,,Clear,260,2013-11-25 12:53:00
7:14 AM,28.4,25.0,87,29.94,10.0,West,10.4,-,N/A,,Clear,260,2013-11-25 13:14:00
7:33 AM,28.4,25.2,88,29.94,10.0,West,10.4,-,N/A,,Clear,270,2013-11-25 13:33:00
7:54 AM,27.9,24.8,88,29.95,10.0,West,10.4,-,N/A,,Clear,280,2013-11-25 13:54:00
8:13 AM,28.9,25.7,88,29.95,10.0,West,9.2,-,N/A,,Clear,280,2013-11-25 14:13:00
8:33 AM,30.0,26.4,86,29.96,10.0,West,10.4,-,N/A,,Clear,280,2013-11-25 14:33:00
8:54 AM,31.8,27.1,83,29.97,10.0,WNW,13.8,-,N/A,,Clear,290,2013-11-25 14:54:00
9:13 AM,32.4,27.3,82,29.98,10.0,WNW,15.0,18.4,N/A,,Clear,300,2013-11-25 15:13:00
9:34 AM,33.8,27.5,78,29.99,10.0,WNW,13.8,-,N/A,,Clear,300,2013-11-25 15:34:00
9:53 AM,36.5,28.6,73,29.99,10.0,WNW,15.0,20.7,N/A,,Mostly Cloudy,300,2013-11-25 15:53:00
10:13 AM,35.2,27.3,73,29.99,10.0,WNW,13.8,21.9,N/A,,Mostly Cloudy,290,2013-11-25 16:13:00
10:33 AM,37.6,27.9,68,29.99,10.0,WNW,16.1,24.2,N/A,,Mostly Cloudy,300,2013-11-25 16:33:00
10:53 AM,35.8,27.3,71,29.99,10.0,WNW,16.1,-,N/A,,Overcast,300,2013-11-25 16:53:00
11:13 AM,36.5,27.7,70,29.99,10.0,WNW,15.0,20.7,N/A,,Overcast,290,2013-11-25 17:13:00
11:34 AM,36.5,27.5,70,29.99,10.0,WNW,15.0,19.6,N/A,,Overcast,290,2013-11-25 17:34:00
11:54 AM,36.5,27.5,70,29.99,10.0,WNW,13.8,17.3,N/A,,Overcast,290,2013-11-25 17:54:00
12:13 PM,37.0,27.3,68,29.99,10.0,West,17.3,20.7,N/A,,Overcast,280,2013-11-25 18:13:00
12:33 PM,37.6,27.3,66,29.99,10.0,West,17.3,21.9,N/A,,Overcast,280,2013-11-25 18:33:00
12:53 PM,38.5,27.1,64,30.00,10.0,WNW,15.0,21.9,N/A,,Overcast,290,2013-11-25 18:53:00
1:14 PM,38.7,26.4,61,30.00,10.0,WNW,16.1,20.7,N/A,,Overcast,300,2013-11-25 19:14:00
1:34 PM,39.2,26.1,59,30.00,10.0,WNW,17.3,21.9,N/A,,Overcast,290,2013-11-25 19:34:00
1:53 PM,38.3,25.3,60,30.00,10.0,West,15.0,20.7,N/A,,Overcast,280,2013-11-25 19:53:00
2:14 PM,38.5,25.0,58,30.00,10.0,West,16.1,24.2,N/A,,Overcast,280,2013-11-25 20:14:00
2:34 PM,38.3,24.4,57,30.01,10.0,WNW,16.1,20.7,N/A,,Overcast,290,2013-11-25 20:34:00
2:53 PM,38.3,24.4,57,30.01,10.0,WNW,17.3,21.9,N/A,,Overcast,290,2013-11-25 20:53:00
3:13 PM,38.3,23.9,56,30.02,10.0,WNW,15.0,-,N/A,,Overcast,290,2013-11-25 21:13:00
3:33 PM,37.6,23.4,57,30.03,10.0,West,15.0,25.3,N/A,,Overcast,280,2013-11-25 21:33:00
3:54 PM,37.4,23.5,57,30.04,10.0,WNW,15.0,19.6,N/A,,Overcast,290,2013-11-25 21:54:00
4:14 PM,37.0,23.7,59,30.04,10.0,West,10.4,-,N/A,,Overcast,280,2013-11-25 22:14:00
4:33 PM,36.7,24.8,62,30.05,10.0,West,11.5,-,N/A,,Overcast,280,2013-11-25 22:33:00
4:53 PM,36.5,24.8,63,30.05,10.0,West,11.5,-,N/A,,Overcast,270,2013-11-25 22:53:00
5:14 PM,36.5,24.8,63,30.05,10.0,West,12.7,-,N/A,,Overcast,280,2013-11-25 23:14:00
5:33 PM,36.1,25.0,64,30.05,10.0,West,9.2,-,N/A,,Overcast,270,2013-11-25 23:33:00
5:53 PM,35.8,24.8,64,30.06,10.0,West,10.4,-,N/A,,Overcast,270,2013-11-25 23:53:00
6:13 PM,35.4,24.8,65,30.06,10.0,West,10.4,-,N/A,,Overcast,270,2013-11-26 00:13:00
6:34 PM,36.0,25.3,65,30.07,10.0,West,12.7,-,N/A,,Overcast,280,2013-11-26 00:34:00
6:53 PM,35.8,25.3,66,30.07,10.0,WNW,16.1,20.7,N/A,,Overcast,290,2013-11-26 00:53:00
7:14 PM,35.6,25.3,66,30.07,10.0,WNW,11.5,19.6,N/A,,Overcast,290,2013-11-26 01:14:00
7:33 PM,35.2,25.3,67,30.07,10.0,WNW,12.7,-,N/A,,Overcast,290,2013-11-26 01:33:00
7:53 PM,34.9,24.8,67,30.08,10.0,WNW,16.1,20.7,N/A,,Overcast,300,2013-11-26 01:53:00
8:14 PM,34.7,23.9,65,30.08,10.0,WNW,13.8,-,N/A,,Overcast,300,2013-11-26 02:14:00
8:33 PM,34.2,23.9,66,30.08,10.0,WNW,16.1,-,N/A,,Overcast,300,2013-11-26 02:33:00
8:54 PM,33.3,23.9,69,30.08,10.0,NW,17.3,-,N/A,,Overcast,310,2013-11-26 02:54:00
9:13 PM,32.9,23.9,69,30.08,10.0,NW,18.4,24.2,N/A,,Overcast,310,2013-11-26 03:13:00
9:33 PM,32.2,23.2,69,30.08,10.0,WNW,17.3,23.0,N/A,,Overcast,300,2013-11-26 03:33:00
9:54 PM,32.0,22.8,69,30.08,10.0,NW,16.1,23.0,N/A,,Overcast,310,2013-11-26 03:54:00
10:13 PM,31.6,22.1,68,30.08,10.0,NW,23.0,26.5,N/A,,Overcast,310,2013-11-26 04:13:00
10:33 PM,31.1,21.6,68,30.09,10.0,NW,20.7,26.5,N/A,,Overcast,310,2013-11-26 04:33:00
10:53 PM,30.7,21.0,67,30.10,10.0,WNW,18.4,27.6,N/A,,Overcast,300,2013-11-26 04:53:00
11:13 PM,30.2,21.2,69,30.10,10.0,WNW,16.1,23.0,N/A,,Overcast,300,2013-11-26 05:13:00
11:33 PM,30.2,21.2,69,30.10,10.0,WNW,15.0,23.0,N/A,,Overcast,300,2013-11-26 05:33:00
11:53 PM,29.8,21.2,70,30.11,10.0,WNW,13.8,18.4,N/A,,Overcast,300,2013-11-26 05:53:00